Location: *
(51.4660°N, 0.3360°W)
Time: 10:58:00
(UTC+00:00)

ARGOS - Pass Details

Date: 19 September 2019
Orbit: 821 x 834 km, 98.5° (Epoch: 19 October)

Event Time Altitude Azimuth Distance (km) Brightness Sun altitude
Exits shadow 20:35:20 13° 193° (SSW) 2,189 5.1 -22.5°
Maximum altitude 20:39:47 44° 262° (W) 1,141 4.1 -23.1°
Drops below altitude 10° 20:44:57 10° 334° (NNW) 2,443 6.4 -23.7°
Sets 20:47:26 0° 341° (NNW) 3,383 7.2 -24.0°
